Regional Weather Roundup
Issued by NWS

Home | Current Version | Previous Version | Text Only | Print | Product List | Glossary On
Versions: 1 2 3 4 5 6 7 8 9 10 11 12 13 14 15 16 17 18 19 20 21 22 23 24 25 26 27 28 29 30 31 32 33 34 35 36 37 38 39 40 41 42 43 44 45 46 47 48 49 50
000
ASUS43 KOAX 260010
RWRNE

WEATHER ROUNDUP FOR NEBRASKA
NATIONAL WEATHER SERVICE OMAHA NE
700 PM CDT SAT OCT 25 2014

NOTES: SATELLITE DATA IS BEING USED TO AUGMENT CLOUD COVER ABOVE
       12000 FEET.
       "FAIR" INDICATES FEW OR NO CLOUDS BELOW 12,000 FEET WITH NO
       SIGNIFICANT WEATHER AND/OR OBSTRUCTIONS TO VISIBILITY.

  * THESE STATIONS DO NOT REPORT WEATHER SUCH AS RAIN...SNOW OR FOG.

NEZ001>004-019>022-054>056-260100-
NEBRASKA PANHANDLE

CITY           SKY/WX    TMP DP  RH WIND       PRES   REMARKS
SCOTTSBLUFF    CLEAR     67  36  31 E12       29.98F
6HR MIN TEMP:  64; 6HR MAX TEMP:  77;

ALLIANCE       CLEAR     60  36  40 SE10      29.99F
6HR MIN TEMP:  60; 6HR MAX TEMP:  77;

CHADRON        CLEAR     64  41  42 E3        29.94F
6HR MIN TEMP:  59; 6HR MAX TEMP:  73;

KIMBALL        CLEAR     64  30  28 SE8       30.03F
SIDNEY         CLEAR     60  40  47 SE8       30.03F
6HR MIN TEMP:  60; 6HR MAX TEMP:  79;

$$

NEZ057>060-069>072-079>082-260100-
SOUTHWEST NEBRASKA

CITY           SKY/WX    TMP DP  RH WIND       PRES   REMARKS
NORTH PLATTE   CLEAR     62  47  57 E8        29.99S
6HR MIN TEMP:  61; 6HR MAX TEMP:  77;

IMPERIAL       CLEAR     67  40  37 E7        29.99F
6HR MIN TEMP:  67; 6HR MAX TEMP:  81;

LEXINGTON      CLEAR     66  48  51 E8        29.99F
MCCOOK         CLEAR     72  46  39 E9        29.96F
6HR MIN TEMP:  71; 6HR MAX TEMP:  83;

OGALLALA       CLEAR     70  44  39 E8        30.00S
$$

NEZ005>010-023>029-035>040-094-260100-
NORTH CENTRAL NEBRASKA

CITY           SKY/WX    TMP DP  RH WIND       PRES   REMARKS
VALENTINE      CLEAR     60  33  36 E9        30.02F
6HR MIN TEMP:  60; 6HR MAX TEMP:  71;

AINSWORTH      CLEAR     57  34  42 E7        30.03F
BROKEN BOW     CLEAR     62  45  53 E7        30.02S
6HR MIN TEMP:  62; 6HR MAX TEMP:  75;

O`NEILL        CLEAR     57  38  47 E6        30.05F
ORD            CLEAR     61  41  47 E5        30.01F
6HR MIN TEMP:  61; 6HR MAX TEMP:  72;

THEDFORD       CLEAR     63  41  44 E7        30.03S
$$

NEZ041-046>049-061>064-073>077-083>087-260100-
SOUTH CENTRAL NEBRASKA

CITY           SKY/WX    TMP DP  RH WIND       PRES   REMARKS
GRAND ISLAND   CLEAR     62  44  51 E7        30.02F
6HR MIN TEMP:  62; 6HR MAX TEMP:  76;

AURORA         CLEAR     62  43  50 E6        30.01F
HASTINGS       CLEAR     65  45  48 E7        30.00F
6HR MIN TEMP:  65; 6HR MAX TEMP:  77;

HEBRON         CLEAR     69  48  46 E7        29.99F
HOLDREGE       CLEAR     67  49  52 CALM      29.99F
KEARNEY *      CLEAR     63  45  51 NE9       30.01S
YORK           CLEAR     61  46  59 E8        30.02F
$$

NEZ011>018-030>034-042>045-260100-
NORTHEAST NEBRASKA

CITY           SKY/WX    TMP DP  RH WIND       PRES   REMARKS
NORFOLK        CLEAR     59  39  47 E3        30.04F
6HR MIN TEMP:  59; 6HR MAX TEMP:  71;

ALBION         CLEAR     60  38  44 E7        30.04F
BLAIR          CLEAR     65  41  40 NE6       30.04S
COLUMBUS *     CLEAR     61  37  41 E5        30.05F
FREMONT        CLEAR     67  38  35 NE3       30.04S
TEKAMAH        CLEAR     62  38  40 E8        30.03F
6HR MIN TEMP:  62; 6HR MAX TEMP:  75;

WAYNE          CLEAR     53  38  58 CALM      30.05S
$$

NEZ050>053-065>068-078-088>093-260100-
SOUTHEAST NEBRASKA

CITY           SKY/WX    TMP DP  RH WIND       PRES   REMARKS
LINCOLN        CLEAR     61  44  53 E7        30.03F
6HR MIN TEMP:  61; 6HR MAX TEMP:  75;

OMAHA EPPLEY   CLEAR     66  41  40 E8        30.03F
6HR MIN TEMP:  66; 6HR MAX TEMP:  76;

BEATRICE       CLEAR     67  47  49 E3        30.01S
FALLS CITY     CLEAR     70  44  39 E3        30.00F
6HR MIN TEMP:  70; 6HR MAX TEMP:  79;

NEBRASKA CITY  CLEAR     66  37  33 E3        30.02S
PLATTSMOUTH    CLEAR     66  39  36 NE6       30.03F
$$

NEZ044-045-051>053-067-260100-
OMAHA AREA

CITY           SKY/WX    TMP DP  RH WIND       PRES   REMARKS
OMAHA EPPLEY   CLEAR     66  41  40 E8        30.03F
6HR MIN TEMP:  66; 6HR MAX TEMP:  76;

BLAIR          CLEAR     65  41  40 NE6       30.04S
FREMONT        CLEAR     67  38  35 NE3       30.04S
MILLARD        CLEAR     62  47  57 CALM      30.03S
OFFUTT AFB     CLEAR     63  46  54 NE6       30.02F
PLATTSMOUTH    CLEAR     66  39  36 NE6       30.03F
WAHOO          FAIR      63  42  45 NE3       30.03F
$$



USA.gov is the U.S. government's official web portal to all federal, state and local government web resources and services.